Weather History for Monarch Pass, CO

Change the Weather History Date:

Thursday, November 8, 2012

  Actual Average (KGUC) Record (KGUC)
Temperature  
Mean Temperature 36 °F -  
Max Temperature 41 °F 43 °F 64 °F (2004)
Min Temperature 30 °F 16 °F 5 °F (2000)
Degree Days  
Heating Degree Days 30    
Moisture  
Dew Point 12 °F    
Average Humidity 43    
Maximum Humidity 51    
Minimum Humidity 29    
Precipitation  
Precipitation 0.00 in - - ()
Sea Level Pressure  
Sea Level Pressure 30.31 in    
Wind  
Wind Speed 27 mph (SW)    
Max Wind Speed 36 mph    
Max Gust Speed 41 mph    
Averages and records for this station are not official NWS values.
T = Trace of Precipitation, MM = Missing Value Source: NWS Daily Summary

Daily Weather History Graph

Daily Weather History Graph

Search for Another Location

Airport:

Trip Planner

Search our weather history database for the weather conditions in past years. The results will help you decide how hot, cold, wet, or windy it might be!

Date:

Astronomy

Nov. 08, 2012 Rise Set
Actual Time 6:39 AM MST 4:57 PM MST
Civil Twilight 6:12 AM MST 5:25 PM MST
Nautical Twilight 5:40 AM MST 5:57 PM MST
Astronomical Twilight 5:09 AM MST 6:28 PM MST
Moon 12:42 AM MST (11/8) 1:36 PM MST (11/8)
Length of Visible Light 11h 13m
Length of Day
10h 17m
Waning Crescent, 32% of the Moon is Illuminated
Nov 8
Waning Crescent
Nov 13
New
Nov 20
First Quarter
Nov 28
Full
Dec 6
Last Quarter

Hourly Weather History & Observations

Time (MST) Temp. Windchill Dew Point Humidity Pressure Visibility Wind Dir Wind Speed Gust Speed Precip Events Conditions
12:15 AM 30.2 °F 14.5 °F 12.2 °F 47% 30.39 in - West 33.4 mph 39.1 mph N/A   Clear
12:35 AM 30.2 °F 14.5 °F 12.2 °F 47% 30.39 in - West 33.4 mph - N/A   Clear
12:55 AM 30.2 °F 14.1 °F 12.2 °F 47% 30.39 in - West 35.7 mph 41.4 mph N/A   Clear
1:15 AM 30.2 °F 14.7 °F 14.0 °F 51% 30.39 in - West 32.2 mph 39.1 mph N/A   Clear
1:35 AM 30.2 °F 14.7 °F 14.0 °F 51% 30.39 in - West 32.2 mph 38.0 mph N/A   Clear
1:55 AM 30.2 °F 15.4 °F 14.0 °F 51% 30.39 in - West 28.8 mph - N/A   Clear
2:15 AM 30.2 °F 15.7 °F 14.0 °F 51% 30.40 in - WSW 27.6 mph 31.1 mph N/A   Clear
2:35 AM 30.2 °F 15.7 °F 14.0 °F 51% 30.40 in - WSW 27.6 mph - N/A   Clear
2:55 AM 30.2 °F 15.4 °F 14.0 °F 51% 30.39 in - West 28.8 mph - N/A   Clear
3:15 AM 30.2 °F 16.2 °F 14.0 °F 51% 30.39 in - West 25.3 mph - N/A   Clear
3:35 AM 30.2 °F 15.9 °F 14.0 °F 51% 30.38 in - West 26.5 mph - N/A   Clear
3:55 AM 30.2 °F 15.2 °F 14.0 °F 51% 30.38 in - West 29.9 mph - N/A   Clear
4:15 AM 30.2 °F 15.7 °F 14.0 °F 51% 30.37 in - West 27.6 mph - N/A   Clear
4:35 AM 30.2 °F 16.2 °F 14.0 °F 51% 30.38 in - West 25.3 mph - N/A   Clear
4:55 AM 30.2 °F 16.8 °F 14.0 °F 51% 30.39 in - WSW 23.0 mph - N/A   Clear
5:15 AM 30.2 °F 16.8 °F 14.0 °F 51% 30.38 in - West 23.0 mph - N/A   Clear
5:55 AM 30.2 °F 16.2 °F 14.0 °F 51% 30.37 in - WSW 25.3 mph - N/A   Clear
6:15 AM 30.2 °F 16.2 °F 14.0 °F 51% 30.37 in - WSW 25.3 mph - N/A   Clear
6:35 AM 30.2 °F 16.2 °F 14.0 °F 51% 30.38 in - WSW 25.3 mph - N/A   Clear
6:55 AM 30.2 °F 16.2 °F 14.0 °F 51% 30.38 in - WSW 25.3 mph - N/A   Clear
7:15 AM 30.2 °F 16.2 °F 14.0 °F 51% 30.38 in - WSW 25.3 mph - N/A   Clear
7:35 AM 30.2 °F 16.5 °F 14.0 °F 51% 30.38 in - SW 24.2 mph - N/A   Clear
7:55 AM 32.0 °F 19.2 °F 12.2 °F 44% 30.38 in - SW 23.0 mph - N/A   Clear
8:15 AM 32.0 °F 19.2 °F 12.2 °F 44% 30.38 in - SW 23.0 mph - N/A   Clear
8:35 AM 33.8 °F 21.9 °F 12.2 °F 41% 30.38 in - SW 21.9 mph - N/A   Clear
8:55 AM 33.8 °F 22.8 °F 10.4 °F 38% 30.38 in - SW 18.4 mph - N/A   Clear
9:15 AM 33.8 °F 22.8 °F 10.4 °F 38% 30.37 in - SSW 18.4 mph - N/A   Clear
9:35 AM 35.6 °F 24.0 °F 10.4 °F 35% 30.37 in - SSW 23.0 mph - N/A   Clear
9:55 AM 35.6 °F 25.2 °F 10.4 °F 35% 30.37 in - SSW 18.4 mph - N/A   Clear
10:15 AM 37.4 °F 25.9 °F 10.4 °F 33% 30.36 in - SSW 25.3 mph 28.8 mph N/A   Clear
10:35 AM 37.4 °F 26.4 °F 12.2 °F 36% 30.36 in - SW 23.0 mph 28.8 mph N/A   Clear
10:55 AM 37.4 °F 26.4 °F 12.2 °F 36% 30.35 in - SW 23.0 mph 27.6 mph N/A   Clear
11:15 AM 39.2 °F 31.2 °F 12.2 °F 33% 30.34 in - SSW 13.8 mph 28.8 mph N/A   Clear
11:35 AM 39.2 °F 27.6 °F 12.2 °F 33% 30.32 in - SW 28.8 mph 32.2 mph N/A   Clear
11:55 AM 39.2 °F 29.0 °F 12.2 °F 33% 30.32 in - SSW 21.9 mph 29.9 mph N/A   Scattered Clouds
12:15 PM 41.0 °F 31.6 °F 12.2 °F 31% 30.30 in - SSW 20.7 mph 28.8 mph N/A   Mostly Cloudy
12:35 PM 41.0 °F 30.9 °F 10.4 °F 29% 30.29 in - SSW 24.2 mph 35.7 mph N/A   Scattered Clouds
12:55 PM 39.2 °F 27.8 °F 10.4 °F 31% 30.29 in - SSW 27.6 mph 32.2 mph N/A   Mostly Cloudy
1:15 PM 41.0 °F 29.7 °F 10.4 °F 29% 30.27 in - SSW 31.1 mph - N/A   Overcast
1:35 PM 39.2 °F 27.4 °F 12.2 °F 33% 30.27 in - SSW 29.9 mph 38.0 mph N/A   Mostly Cloudy
1:55 PM 39.2 °F 27.6 °F 12.2 °F 33% 30.27 in - SSW 28.8 mph 35.7 mph N/A   Mostly Cloudy
2:15 PM 39.2 °F 27.4 °F 12.2 °F 33% 30.27 in - SSW 29.9 mph 38.0 mph N/A   Scattered Clouds
2:35 PM 41.0 °F 29.7 °F 10.4 °F 29% 30.26 in - SSW 31.1 mph 40.3 mph N/A   Clear
2:55 PM 41.0 °F 30.0 °F 10.4 °F 29% 30.26 in - SSW 28.8 mph 34.5 mph N/A   Clear
3:15 PM 41.0 °F 31.4 °F 12.2 °F 31% 30.27 in - SSW 21.9 mph 34.5 mph N/A   Clear
3:35 PM 41.0 °F 30.2 °F 12.2 °F 31% 30.27 in - SW 27.6 mph 31.1 mph N/A   Clear
3:55 PM 39.2 °F 27.6 °F 12.2 °F 33% 30.27 in - SW 28.8 mph - N/A   Clear
4:15 PM 37.4 °F 27.2 °F 12.2 °F 36% 30.27 in - SSW 19.6 mph 26.5 mph N/A   Clear
4:35 PM 35.6 °F 24.0 °F 12.2 °F 38% 30.26 in - SSW 23.0 mph 26.5 mph N/A   Clear
4:55 PM 33.8 °F 21.9 °F 14.0 °F 44% 30.26 in - SSW 21.9 mph - N/A   Clear
5:15 PM 33.8 °F 21.9 °F 14.0 °F 44% 30.27 in - SSW 21.9 mph - N/A   Clear
5:35 PM 32.0 °F 19.8 °F 14.0 °F 48% 30.27 in - SSW 20.7 mph - N/A   Mostly Cloudy
5:55 PM 32.0 °F 19.8 °F 15.8 °F 51% 30.26 in - SSW 20.7 mph - N/A   Overcast
6:15 PM 32.0 °F 20.1 °F 15.8 °F 51% 30.25 in - SSW 19.6 mph - N/A   Scattered Clouds
6:35 PM 32.0 °F 20.5 °F 14.0 °F 48% 30.25 in - SSW 18.4 mph - N/A   Clear
6:55 PM 32.0 °F 20.1 °F 14.0 °F 48% 30.25 in - SSW 19.6 mph - N/A   Clear
7:15 PM 32.0 °F 19.5 °F 14.0 °F 48% 30.25 in - SSW 21.9 mph - N/A   Clear
7:35 PM 32.0 °F 19.2 °F 14.0 °F 48% 30.24 in - SW 23.0 mph - N/A   Clear
7:55 PM 32.0 °F 18.9 °F 14.0 °F 48% 30.24 in - SW 24.2 mph - N/A   Clear
8:15 PM 32.0 °F 19.2 °F 12.2 °F 44% 30.23 in - SW 23.0 mph - N/A   Clear
8:35 PM 30.2 °F 17.1 °F 12.2 °F 47% 30.22 in - SW 21.9 mph - N/A   Clear
8:55 PM 30.2 °F 14.9 °F 12.2 °F 47% 30.21 in - SW 31.1 mph - N/A   Clear
9:15 PM 32.0 °F 16.7 °F 12.2 °F 44% 30.21 in - SW 34.5 mph 41.4 mph N/A   Clear
9:35 PM 32.0 °F 17.4 °F 10.4 °F 41% 30.21 in - SW 31.1 mph - N/A   Scattered Clouds
9:55 PM 32.0 °F 17.4 °F 10.4 °F 41% 30.21 in - SSW 31.1 mph - N/A   Scattered Clouds
10:15 PM 30.2 °F 15.4 °F 8.6 °F 40% 30.21 in - SW 28.8 mph - N/A   Clear
10:35 PM 30.2 °F 14.9 °F 10.4 °F 44% 30.21 in - SW 31.1 mph 36.8 mph N/A   Clear
10:55 PM 32.0 °F 17.9 °F 8.6 °F 38% 30.21 in - SW 28.8 mph - N/A   Scattered Clouds
11:15 PM 30.2 °F 14.9 °F 8.6 °F 40% 30.20 in - SW 31.1 mph - N/A   Scattered Clouds
11:35 PM 32.0 °F 18.1 °F 10.4 °F 41% 30.20 in - SSW 27.6 mph 36.8 mph N/A   Clear
11:55 PM 32.0 °F 17.6 °F 10.4 °F 41% 30.20 in - SW 29.9 mph 34.5 mph N/A   Scattered Clouds